Location: Godzisko
(49.9648°N, 19.4576°E)
Time: 02:20:03
(UTC+00:00)

Meteor 1-27 Rocket - Pass Details

Date: 20 April 2021
Orbit: 830 x 909 km, 81.3° (Epoch: 08 May)

Event Time Altitude Azimuth Distance (km) Brightness Sun altitude
Exits shadow 00:20:03 50° 262° (W) 1,092 4.0 -24.8°
Maximum altitude 00:20:46 53° 288° (WNW) 1,055 4.1 -24.7°
Drops below altitude 10° 00:26:23 10° 5° (N) 2,535 7.1 -24.3°
Sets 00:28:56 0° 10° (N) 3,490 8.1 -24.1°
